Melilla, Spain

8:16 PM CET on December 03, 2016 (GMT +0100)
Melilla

Weather History for GEML - March, 2014

Change the Weather History Date:

Monday, March 24, 2014

  Actual Average Record
Temperature  
Mean Temperature 60 °F -  
Max Temperature 68 °F 67 °F 77 °F (2006)
Min Temperature 51 °F 56 °F 50 °F (2004)
Degree Days  
Heating Degree Days 6    
Growing Degree Days 10 (Base 50)    
Moisture  
Dew Point 44 °F    
Average Humidity 48    
Maximum Humidity 67    
Minimum Humidity 32    
Precipitation  
Precipitation 0.00 in - - ()
Sea Level Pressure  
Sea Level Pressure 30.16 in    
Wind  
Wind Speed 6 mph ()    
Max Wind Speed 21 mph    
Max Gust Speed 36 mph    
Visibility 12.0 miles    
Events      
Averages and records for this station are not official NWS values.
T = Trace of Precipitation, MM = Missing Value Source: Averaged Metar Reports

Daily Weather History Graph

Daily Weather History Graph

Search for Another Location

Airport or City:

Trip Planner

Search our weather history database for the weather conditions in past years. The results will help you decide how hot, cold, wet, or windy it might be!

Date:

Astronomy

Mar. 24, 2014 Rise Set
Actual Time 7:10 AM CET 7:26 PM CET
Civil Twilight 6:44 AM CET 7:52 PM CET
Nautical Twilight 6:15 AM CET 8:21 PM CET
Astronomical Twilight 5:44 AM CET 8:52 PM CET
Moon 2:14 AM CET (3/24) 12:49 PM CET (3/24)
Length of Visible Light 13h 07m
Length of Day
12h 16m
Last Quarter, 46% of the Moon is Illuminated
Mar 24
Last Quarter
Mar 30
New
Apr 7
First Quarter
Apr 15
Full
Apr 22
Last Quarter

Hourly Weather History & Observations

Time (CET) Temp. Dew Point Humidity Pressure Visibility Wind Dir Wind Speed Gust Speed Precip Events Conditions
6:00 AM 55.4 °F 44.6 °F 67% 30.15 in - WSW 4.6 mph - N/A   Clear
6:30 AM 55.4 °F 42.8 °F 63% 30.15 in - Variable 1.2 mph - N/A   Clear
7:00 AM 56 °F 41 °F 46% 30.18 in 12 mi West 2.3 mph - -  
7:00 AM 55.4 °F 41.0 °F 58% 30.18 in - Variable 2.3 mph - N/A   Clear
7:30 AM 55.4 °F 39.2 °F 54% 30.18 in - WSW 3.5 mph - N/A   Clear
8:00 AM 55.4 °F 41.0 °F 58% 30.18 in - Variable 2.3 mph - N/A   Clear
8:30 AM 59.0 °F 41.0 °F 51% 30.18 in - Calm Calm - N/A   Clear
9:00 AM 60.8 °F 41.0 °F 48% 30.18 in - West 2.3 mph - N/A   Clear
9:30 AM 62.6 °F 42.8 °F 48% 30.18 in - Variable 2.3 mph - N/A   Clear
10:00 AM 64 °F 42 °F 33% 30.21 in 25 mi Calm Calm - -  
10:00 AM 64.4 °F 42.8 °F 45% 30.21 in - Variable 2.3 mph - N/A   Clear
10:30 AM 64.4 °F 44.6 °F 49% 30.21 in - SE 1.2 mph - N/A   Clear
11:00 AM 64.4 °F 48.2 °F 56% 30.21 in - Variable 2.3 mph - N/A   Clear
11:30 AM 66.2 °F 39.2 °F 37% 30.21 in - NW 4.6 mph - N/A   Clear
12:00 PM 66.2 °F 41.0 °F 40% 30.18 in - NW 5.8 mph - N/A   Clear
12:30 PM 66.2 °F 41.0 °F 40% 30.18 in - WNW 8.1 mph - N/A   Clear
1:00 PM 67 °F 44 °F 32% 30.18 in 31 mi WNW 8.1 mph - -   Clear
1:00 PM 68.0 °F 41.0 °F 37% 30.18 in - WNW 8.1 mph - N/A   Clear
1:30 PM 68.0 °F 41.0 °F 37% 30.18 in - WNW 11.5 mph - N/A   Clear
2:00 PM 66.2 °F 44.6 °F 46% 30.18 in - WNW 12.7 mph - N/A   Clear
2:30 PM 66.2 °F 48.2 °F 52% 30.15 in - West 10.4 mph - N/A   Clear
3:00 PM 66.2 °F 42.8 °F 43% 30.15 in - WNW 12.7 mph - N/A   Clear
3:30 PM 66.2 °F 39.2 °F 37% 30.15 in - West 13.8 mph - N/A   Clear
4:00 PM 66 °F 47 °F 38% 30.14 in 25 mi West 15.0 mph - -   Clear
4:00 PM 66.2 °F 44.6 °F 46% 30.15 in - West 15.0 mph - N/A   Clear
4:30 PM 64.4 °F 48.2 °F 56% 30.12 in - West 16.1 mph 27.6 mph N/A   Clear
5:00 PM 66.2 °F 48.2 °F 52% 30.12 in - West 13.8 mph - N/A   Clear
5:30 PM 64.4 °F 44.6 °F 49% 30.12 in - West 13.8 mph - N/A   Clear
6:00 PM 64.4 °F 44.6 °F 49% 30.12 in - West 11.5 mph - N/A   Clear
6:30 PM 64.4 °F 42.8 °F 45% 30.12 in - West 10.4 mph 21.9 mph N/A   Clear
7:00 PM 63 °F 47 °F 45% 30.14 in 25 mi West 13.8 mph - -   Clear
7:00 PM 62.6 °F 44.6 °F 52% 30.15 in - West 13.8 mph - N/A   Clear
7:30 PM 62.6 °F 44.6 °F 52% 30.12 in - West 12.7 mph - N/A   Clear
8:00 PM 62.6 °F 44.6 °F 52% 30.15 in - West 19.6 mph 32.2 mph N/A   Clear
8:30 PM 62.6 °F 46.4 °F 55% 30.15 in - West 20.7 mph 35.7 mph N/A   Clear
9:00 PM 62.6 °F 48.2 °F 59% 30.15 in - West 18.4 mph 29.9 mph N/A   Clear
10:00 PM 62 °F 49 °F 53% 30.18 in 12 mi West 15.0 mph - -   Clear